Voltar ao catálogo

STARLINK-6315

AtivoComunicaçõesVLEO
NORAD 57236·PAYLOAD·🇺🇸 United States

Lançado Jul 7, 2023 de Vandenberg Space Force Base

Loading…

Próximas Passagens (próximas 24 horas)

TLE

AtualizadoSource: CelesTrak SupGP

Época: Sep 14, 2026, 21:57 UTC

1 57236C 23094U   26257.91506944  .00015533  00000+0  56256-3 0  2571
2 57236  43.0036  31.3220 0001423 270.7119 273.2710 15.27572229    14

Acompanhe STARLINK-6315 em tempo real com AllMySat

Download on the App Store